Data supplied by UK-AIR on 5/4/2008
All Data GMT hour ending 
Status: R =Ratified P=Provisional,P*=As supplied
,,Sibton,,,,,,,,,,,,,,,,,,,,,,,
Date,time,"Nitric oxide",status,unit,"Nitrogen dioxide",status,unit,"Nitrogen oxides as nitrogen dioxide",status,unit,"Ozone",status,unit
 
01-01-1981,01:00,,,,,,,,,,44,R,ugm-3
01-01-1981,02:00,,,,,,,,,,48,R,ugm-3
01-01-1981,03:00,,,,,,,,,,46,R,ugm-3
01-01-1981,04:00,,,,,,,,,,44,R,ugm-3
01-01-1981,05:00,,,,,,,,,,44,R,ugm-3
01-01-1981,06:00,,,,,,,,,,44,R,ugm-3
01-01-1981,07:00,,,,,,,,,,44,R,ugm-3
01-01-1981,08:00,,,,,,,,,,44,R,ugm-3
01-01-1981,09:00,,,,,,,,,,48,R,ugm-3
01-01-1981,10:00,,,,,,,,,,46,R,ugm-3
01-01-1981,11:00,,,,,,,,,,46,R,ugm-3
01-01-1981,12:00,,,,,,,,,,44,R,ugm-3
01-01-1981,13:00,,,,,,,,,,42,R,ugm-3
01-01-1981,14:00,,,,,,,,,,42,R,ugm-3
01-01-1981,15:00,,,,,,,,,,46,R,ugm-3
01-01-1981,16:00,,,,,,,,,,44,R,ugm-3
01-01-1981,17:00,,,,,,,,,,44,R,ugm-3
01-01-1981,18:00,,,,,,,,,,40,R,ugm-3
01-01-1981,19:00,,,,,,,,,,34,R,ugm-3
01-01-1981,20:00,,,,,,,,,,32,R,ugm-3
01-01-1981,21:00,,,,,,,,,,32,R,ugm-3
01-01-1981,22:00,,,,,,,,,,32,R,ugm-3
01-01-1981,23:00,,,,,,,,,,30,R,ugm-3
01-01-1981,24:00,,,,,,,,,,34,R,ugm-3
02-01-1981,01:00,,,,,,,,,,36,R,ugm-3
02-01-1981,02:00,,,,,,,,,,38,R,ugm-3
02-01-1981,03:00,,,,,,,,,,38,R,ugm-3
02-01-1981,04:00,,,,,,,,,,36,R,ugm-3
02-01-1981,05:00,,,,,,,,,,36,R,ugm-3
02-01-1981,06:00,,,,,,,,,,38,R,ugm-3
02-01-1981,07:00,,,,,,,,,,38,R,ugm-3
02-01-1981,08:00,,,,,,,,,,38,R,ugm-3
02-01-1981,09:00,,,,,,,,,,40,R,ugm-3
02-01-1981,10:00,,,,,,,,,,40,R,ugm-3
02-01-1981,11:00,,,,,,,,,,40,R,ugm-3
02-01-1981,12:00,,,,,,,,,,40,R,ugm-3
02-01-1981,13:00,,,,,,,,,,40,R,ugm-3
02-01-1981,14:00,,,,,,,,,,40,R,ugm-3
02-01-1981,15:00,,,,,,,,,,38,R,ugm-3
02-01-1981,16:00,,,,,,,,,,44,R,ugm-3
02-01-1981,17:00,,,,,,,,,,44,R,ugm-3
02-01-1981,18:00,,,,,,,,,,42,R,ugm-3
02-01-1981,19:00,,,,,,,,,,42,R,ugm-3
02-01-1981,20:00,,,,,,,,,,42,R,ugm-3
02-01-1981,21:00,,,,,,,,,,42,R,ugm-3
02-01-1981,22:00,,,,,,,,,,42,R,ugm-3
02-01-1981,23:00,,,,,,,,,,42,R,ugm-3
02-01-1981,24:00,,,,,,,,,,42,R,ugm-3
03-01-1981,01:00,,,,,,,,,,44,R,ugm-3
03-01-1981,02:00,,,,,,,,,,44,R,ugm-3
03-01-1981,03:00,,,,,,,,,,44,R,ugm-3
03-01-1981,04:00,,,,,,,,,,46,R,ugm-3
03-01-1981,05:00,,,,,,,,,,46,R,ugm-3
03-01-1981,06:00,,,,,,,,,,48,R,ugm-3
03-01-1981,07:00,,,,,,,,,,48,R,ugm-3
03-01-1981,08:00,,,,,,,,,,50,R,ugm-3
03-01-1981,09:00,,,,,,,,,,52,R,ugm-3
03-01-1981,10:00,,,,,,,,,,52,R,ugm-3
03-01-1981,11:00,,,,,,,,,,50,R,ugm-3
03-01-1981,12:00,,,,,,,,,,46,R,ugm-3
03-01-1981,13:00,,,,,,,,,,44,R,ugm-3
03-01-1981,14:00,,,,,,,,,,44,R,ugm-3
03-01-1981,15:00,,,,,,,,,,44,R,ugm-3
03-01-1981,16:00,,,,,,,,,,44,R,ugm-3
03-01-1981,17:00,,,,,,,,,,40,R,ugm-3
03-01-1981,18:00,,,,,,,,,,38,R,ugm-3
03-01-1981,19:00,,,,,,,,,,36,R,ugm-3
03-01-1981,20:00,,,,,,,,,,36,R,ugm-3
03-01-1981,21:00,,,,,,,,,,38,R,ugm-3
03-01-1981,22:00,,,,,,,,,,34,R,ugm-3
03-01-1981,23:00,,,,,,,,,,34,R,ugm-3
03-01-1981,24:00,,,,,,,,,,34,R,ugm-3
04-01-1981,01:00,,,,,,,,,,34,R,ugm-3
04-01-1981,02:00,,,,,,,,,,32,R,ugm-3
04-01-1981,03:00,,,,,,,,,,30,R,ugm-3
04-01-1981,04:00,,,,,,,,,,30,R,ugm-3
04-01-1981,05:00,,,,,,,,,,28,R,ugm-3
04-01-1981,06:00,,,,,,,,,,28,R,ugm-3
04-01-1981,07:00,,,,,,,,,,28,R,ugm-3
04-01-1981,08:00,,,,,,,,,,26,R,ugm-3
04-01-1981,09:00,,,,,,,,,,26,R,ugm-3
04-01-1981,10:00,,,,,,,,,,28,R,ugm-3
04-01-1981,11:00,,,,,,,,,,32,R,ugm-3
04-01-1981,12:00,,,,,,,,,,36,R,ugm-3
04-01-1981,13:00,,,,,,,,,,40,R,ugm-3
04-01-1981,14:00,,,,,,,,,,38,R,ugm-3
04-01-1981,15:00,,,,,,,,,,42,R,ugm-3
04-01-1981,16:00,,,,,,,,,,40,R,ugm-3
04-01-1981,17:00,,,,,,,,,,38,R,ugm-3
04-01-1981,18:00,,,,,,,,,,38,R,ugm-3
04-01-1981,19:00,,,,,,,,,,38,R,ugm-3
04-01-1981,20:00,,,,,,,,,,34,R,ugm-3
04-01-1981,21:00,,,,,,,,,,30,R,ugm-3
04-01-1981,22:00,,,,,,,,,,32,R,ugm-3
04-01-1981,23:00,,,,,,,,,,26,R,ugm-3
04-01-1981,24:00,,,,,,,,,,24,R,ugm-3
05-01-1981,01:00,,,,,,,,,,24,R,ugm-3
05-01-1981,02:00,,,,,,,,,,22,R,ugm-3
05-01-1981,03:00,,,,,,,,,,22,R,ugm-3
05-01-1981,04:00,,,,,,,,,,20,R,ugm-3
05-01-1981,05:00,,,,,,,,,,16,R,ugm-3
05-01-1981,06:00,,,,,,,,,,22,R,ugm-3
05-01-1981,07:00,,,,,,,,,,26,R,ugm-3
05-01-1981,08:00,,,,,,,,,,30,R,ugm-3
05-01-1981,09:00,,,,,,,,,,26,R,ugm-3
05-01-1981,10:00,,,,,,,,,,22,R,ugm-3
05-01-1981,11:00,,,,,,,,,,26,R,ugm-3
05-01-1981,12:00,,,,,,,,,,26,R,ugm-3
05-01-1981,13:00,,,,,,,,,,24,R,ugm-3
05-01-1981,14:00,,,,,,,,,,26,R,ugm-3
05-01-1981,15:00,,,,,,,,,,22,R,ugm-3
05-01-1981,16:00,,,,,,,,,,16,R,ugm-3
05-01-1981,17:00,,,,,,,,,,6,R,ugm-3
05-01-1981,18:00,,,,,,,,,,0,R,ugm-3
05-01-1981,19:00,,,,,,,,,,0,R,ugm-3
05-01-1981,20:00,,,,,,,,,,2,R,ugm-3
05-01-1981,21:00,,,,,,,,,,6,R,ugm-3
05-01-1981,22:00,,,,,,,,,,10,R,ugm-3
05-01-1981,23:00,,,,,,,,,,4,R,ugm-3
05-01-1981,24:00,,,,,,,,,,12,R,ugm-3
06-01-1981,01:00,,,,,,,,,,24,R,ugm-3
06-01-1981,02:00,,,,,,,,,,26,R,ugm-3
06-01-1981,03:00,,,,,,,,,,36,R,ugm-3
06-01-1981,04:00,,,,,,,,,,42,R,ugm-3
06-01-1981,05:00,,,,,,,,,,40,R,ugm-3
06-01-1981,06:00,,,,,,,,,,40,R,ugm-3
06-01-1981,07:00,,,,,,,,,,40,R,ugm-3
06-01-1981,08:00,,,,,,,,,,40,R,ugm-3
06-01-1981,09:00,,,,,,,,,,36,R,ugm-3
06-01-1981,10:00,,,,,,,,,,26,R,ugm-3
06-01-1981,11:00,,,,,,,,,,22,R,ugm-3
06-01-1981,12:00,,,,,,,,,,24,R,ugm-3
06-01-1981,13:00,,,,,,,,,,32,R,ugm-3
06-01-1981,14:00,,,,,,,,,,30,R,ugm-3
06-01-1981,15:00,,,,,,,,,,28,R,ugm-3
06-01-1981,16:00,,,,,,,,,,28,R,ugm-3
06-01-1981,17:00,,,,,,,,,,32,R,ugm-3
06-01-1981,18:00,,,,,,,,,,40,R,ugm-3
06-01-1981,19:00,,,,,,,,,,32,R,ugm-3
06-01-1981,20:00,,,,,,,,,,22,R,ugm-3
06-01-1981,21:00,,,,,,,,,,16,R,ugm-3
06-01-1981,22:00,,,,,,,,,,20,R,ugm-3
06-01-1981,23:00,,,,,,,,,,22,R,ugm-3
06-01-1981,24:00,,,,,,,,,,26,R,ugm-3
07-01-1981,01:00,,,,,,,,,,26,R,ugm-3
07-01-1981,02:00,,,,,,,,,,26,R,ugm-3
07-01-1981,03:00,,,,,,,,,,22,R,ugm-3
07-01-1981,04:00,,,,,,,,,,20,R,ugm-3
07-01-1981,05:00,,,,,,,,,,20,R,ugm-3
07-01-1981,06:00,,,,,,,,,,16,R,ugm-3
07-01-1981,07:00,,,,,,,,,,14,R,ugm-3
07-01-1981,08:00,,,,,,,,,,16,R,ugm-3
07-01-1981,09:00,,,,,,,,,,4,R,ugm-3
07-01-1981,10:00,,,,,,,,,,4,R,ugm-3
07-01-1981,11:00,,,,,,,,,,8,R,ugm-3
07-01-1981,12:00,,,,,,,,,,12,R,ugm-3
07-01-1981,13:00,,,,,,,,,,10,R,ugm-3
07-01-1981,14:00,,,,,,,,,,10,R,ugm-3
07-01-1981,15:00,,,,,,,,,,8,R,ugm-3
07-01-1981,16:00,,,,,,,,,,4,R,ugm-3
07-01-1981,17:00,,,,,,,,,,0,R,ugm-3
07-01-1981,18:00,,,,,,,,,,0,R,ugm-3
07-01-1981,19:00,,,,,,,,,,0,R,ugm-3
07-01-1981,20:00,,,,,,,,,,0,R,ugm-3
07-01-1981,21:00,,,,,,,,,,0,R,ugm-3
07-01-1981,22:00,,,,,,,,,,0,R,ugm-3
07-01-1981,23:00,,,,,,,,,,0,R,ugm-3
07-01-1981,24:00,,,,,,,,,,0,R,ugm-3
08-01-1981,01:00,,,,,,,,,,0,R,ugm-3
08-01-1981,02:00,,,,,,,,,,0,R,ugm-3
08-01-1981,03:00,,,,,,,,,,0,R,ugm-3
08-01-1981,04:00,,,,,,,,,,0,R,ugm-3
08-01-1981,05:00,,,,,,,,,,0,R,ugm-3
08-01-1981,06:00,,,,,,,,,,0,R,ugm-3
08-01-1981,07:00,,,,,,,,,,0,R,ugm-3
08-01-1981,08:00,,,,,,,,,,0,R,ugm-3
08-01-1981,09:00,,,,,,,,,,0,R,ugm-3
08-01-1981,10:00,,,,,,,,,,2,R,ugm-3
08-01-1981,11:00,,,,,,,,,,2,R,ugm-3
08-01-1981,12:00,,,,,,,,,,4,R,ugm-3
08-01-1981,13:00,,,,,,,,,,4,R,ugm-3
08-01-1981,14:00,,,,,,,,,,4,R,ugm-3
08-01-1981,15:00,,,,,,,,,,4,R,ugm-3
08-01-1981,16:00,,,,,,,,,,2,R,ugm-3
08-01-1981,17:00,,,,,,,,,,0,R,ugm-3
08-01-1981,18:00,,,,,,,,,,0,R,ugm-3
08-01-1981,19:00,,,,,,,,,,0,R,ugm-3
08-01-1981,20:00,,,,,,,,,,0,R,ugm-3
08-01-1981,21:00,,,,,,,,,,0,R,ugm-3
08-01-1981,22:00,,,,,,,,,,0,R,ugm-3
08-01-1981,23:00,,,,,,,,,,0,R,ugm-3
08-01-1981,24:00,,,,,,,,,,12,R,ugm-3
09-01-1981,01:00,,,,,,,,,,26,R,ugm-3
09-01-1981,02:00,,,,,,,,,,24,R,ugm-3
09-01-1981,03:00,,,,,,,,,,28,R,ugm-3
09-01-1981,04:00,,,,,,,,,,32,R,ugm-3
09-01-1981,05:00,,,,,,,,,,32,R,ugm-3
09-01-1981,06:00,,,,,,,,,,32,R,ugm-3
09-01-1981,07:00,,,,,,,,,,34,R,ugm-3
09-01-1981,08:00,,,,,,,,,,32,R,ugm-3
09-01-1981,09:00,,,,,,,,,,32,R,ugm-3
09-01-1981,10:00,,,,,,,,,,30,R,ugm-3
09-01-1981,11:00,,,,,,,,,,26,R,ugm-3
09-01-1981,12:00,,,,,,,,,,24,R,ugm-3
09-01-1981,13:00,,,,,,,,,,24,R,ugm-3
09-01-1981,14:00,,,,,,,,,,24,R,ugm-3
09-01-1981,15:00,,,,,,,,,,22,R,ugm-3
09-01-1981,16:00,,,,,,,,,,26,R,ugm-3
09-01-1981,17:00,,,,,,,,,,26,R,ugm-3
09-01-1981,18:00,,,,,,,,,,32,R,ugm-3
09-01-1981,19:00,,,,,,,,,,36,R,ugm-3
09-01-1981,20:00,,,,,,,,,,34,R,ugm-3
09-01-1981,21:00,,,,,,,,,,18,R,ugm-3
09-01-1981,22:00,,,,,,,,,,12,R,ugm-3
09-01-1981,23:00,,,,,,,,,,12,R,ugm-3
09-01-1981,24:00,,,,,,,,,,12,R,ugm-3
10-01-1981,01:00,,,,,,,,,,12,R,ugm-3
10-01-1981,02:00,,,,,,,,,,10,R,ugm-3
10-01-1981,03:00,,,,,,,,,,12,R,ugm-3
10-01-1981,04:00,,,,,,,,,,34,R,ugm-3
10-01-1981,05:00,,,,,,,,,,36,R,ugm-3
10-01-1981,06:00,,,,,,,,,,44,R,ugm-3
10-01-1981,07:00,,,,,,,,,,42,R,ugm-3
10-01-1981,08:00,,,,,,,,,,44,R,ugm-3
10-01-1981,09:00,,,,,,,,,,48,R,ugm-3
10-01-1981,10:00,,,,,,,,,,48,R,ugm-3
10-01-1981,11:00,,,,,,,,,,50,R,ugm-3
10-01-1981,12:00,,,,,,,,,,48,R,ugm-3
10-01-1981,13:00,,,,,,,,,,48,R,ugm-3
10-01-1981,14:00,,,,,,,,,,46,R,ugm-3
10-01-1981,15:00,,,,,,,,,,46,R,ugm-3
10-01-1981,16:00,,,,,,,,,,46,R,ugm-3
10-01-1981,17:00,,,,,,,,,,46,R,ugm-3
10-01-1981,18:00,,,,,,,,,,46,R,ugm-3
10-01-1981,19:00,,,,,,,,,,48,R,ugm-3
10-01-1981,20:00,,,,,,,,,,48,R,ugm-3
10-01-1981,21:00,,,,,,,,,,48,R,ugm-3
10-01-1981,22:00,,,,,,,,,,48,R,ugm-3
10-01-1981,23:00,,,,,,,,,,48,R,ugm-3
10-01-1981,24:00,,,,,,,,,,46,R,ugm-3
11-01-1981,01:00,,,,,,,,,,44,R,ugm-3
11-01-1981,02:00,,,,,,,,,,46,R,ugm-3
11-01-1981,03:00,,,,,,,,,,48,R,ugm-3
11-01-1981,04:00,,,,,,,,,,48,R,ugm-3
11-01-1981,05:00,,,,,,,,,,48,R,ugm-3
11-01-1981,06:00,,,,,,,,,,48,R,ugm-3
11-01-1981,07:00,,,,,,,,,,48,R,ugm-3
11-01-1981,08:00,,,,,,,,,,46,R,ugm-3
11-01-1981,09:00,,,,,,,,,,42,R,ugm-3
11-01-1981,10:00,,,,,,,,,,44,R,ugm-3
11-01-1981,11:00,,,,,,,,,,42,R,ugm-3
11-01-1981,12:00,,,,,,,,,,42,R,ugm-3
11-01-1981,13:00,,,,,,,,,,42,R,ugm-3
11-01-1981,14:00,,,,,,,,,,48,R,ugm-3
11-01-1981,15:00,,,,,,,,,,48,R,ugm-3
11-01-1981,16:00,,,,,,,,,,40,R,ugm-3
11-01-1981,17:00,,,,,,,,,,36,R,ugm-3
11-01-1981,18:00,,,,,,,,,,38,R,ugm-3
11-01-1981,19:00,,,,,,,,,,36,R,ugm-3
11-01-1981,20:00,,,,,,,,,,32,R,ugm-3
11-01-1981,21:00,,,,,,,,,,24,R,ugm-3
11-01-1981,22:00,,,,,,,,,,18,R,ugm-3
11-01-1981,23:00,,,,,,,,,,14,R,ugm-3
11-01-1981,24:00,,,,,,,,,,12,R,ugm-3
12-01-1981,01:00,,,,,,,,,,16,R,ugm-3
12-01-1981,02:00,,,,,,,,,,16,R,ugm-3
12-01-1981,03:00,,,,,,,,,,22,R,ugm-3
12-01-1981,04:00,,,,,,,,,,26,R,ugm-3
12-01-1981,05:00,,,,,,,,,,30,R,ugm-3
12-01-1981,06:00,,,,,,,,,,30,R,ugm-3
12-01-1981,07:00,,,,,,,,,,28,R,ugm-3
12-01-1981,08:00,,,,,,,,,,28,R,ugm-3
12-01-1981,09:00,,,,,,,,,,28,R,ugm-3
12-01-1981,10:00,,,,,,,,,,26,R,ugm-3
12-01-1981,11:00,,,,,,,,,,26,R,ugm-3
12-01-1981,12:00,,,,,,,,,,26,R,ugm-3
12-01-1981,13:00,,,,,,,,,,42,R,ugm-3
12-01-1981,14:00,,,,,,,,,,42,R,ugm-3
12-01-1981,15:00,,,,,,,,,,34,R,ugm-3
12-01-1981,16:00,,,,,,,,,,34,R,ugm-3
12-01-1981,17:00,,,,,,,,,,42,R,ugm-3
12-01-1981,18:00,,,,,,,,,,40,R,ugm-3
12-01-1981,19:00,,,,,,,,,,42,R,ugm-3
12-01-1981,20:00,,,,,,,,,,42,R,ugm-3
12-01-1981,21:00,,,,,,,,,,44,R,ugm-3
12-01-1981,22:00,,,,,,,,,,46,R,ugm-3
12-01-1981,23:00,,,,,,,,,,48,R,ugm-3
12-01-1981,24:00,,,,,,,,,,46,R,ugm-3
13-01-1981,01:00,,,,,,,,,,46,R,ugm-3
13-01-1981,02:00,,,,,,,,,,50,R,ugm-3
13-01-1981,03:00,,,,,,,,,,48,R,ugm-3
13-01-1981,04:00,,,,,,,,,,46,R,ugm-3
13-01-1981,05:00,,,,,,,,,,44,R,ugm-3
13-01-1981,06:00,,,,,,,,,,46,R,ugm-3
13-01-1981,07:00,,,,,,,,,,50,R,ugm-3
13-01-1981,08:00,,,,,,,,,,44,R,ugm-3
13-01-1981,09:00,,,,,,,,,,42,R,ugm-3
13-01-1981,10:00,,,,,,,,,,42,R,ugm-3
13-01-1981,11:00,,,,,,,,,,42,R,ugm-3
13-01-1981,12:00,,,,,,,,,,42,R,ugm-3
13-01-1981,13:00,,,,,,,,,,38,R,ugm-3
13-01-1981,14:00,,,,,,,,,,28,R,ugm-3
13-01-1981,15:00,,,,,,,,,,20,R,ugm-3
13-01-1981,16:00,,,,,,,,,,12,R,ugm-3
13-01-1981,17:00,,,,,,,,,,6,R,ugm-3
13-01-1981,18:00,,,,,,,,,,8,R,ugm-3
13-01-1981,19:00,,,,,,,,,,12,R,ugm-3
13-01-1981,20:00,,,,,,,,,,14,R,ugm-3
13-01-1981,21:00,,,,,,,,,,14,R,ugm-3
13-01-1981,22:00,,,,,,,,,,2,R,ugm-3
13-01-1981,23:00,,,,,,,,,,0,R,ugm-3
13-01-1981,24:00,,,,,,,,,,8,R,ugm-3
14-01-1981,01:00,,,,,,,,,,16,R,ugm-3
14-01-1981,02:00,,,,,,,,,,20,R,ugm-3
14-01-1981,03:00,,,,,,,,,,22,R,ugm-3
14-01-1981,04:00,,,,,,,,,,24,R,ugm-3
14-01-1981,05:00,,,,,,,,,,26,R,ugm-3
14-01-1981,06:00,,,,,,,,,,28,R,ugm-3
14-01-1981,07:00,,,,,,,,,,28,R,ugm-3
14-01-1981,08:00,,,,,,,,,,32,R,ugm-3
14-01-1981,09:00,,,,,,,,,,34,R,ugm-3
14-01-1981,10:00,,,,,,,,,,36,R,ugm-3
14-01-1981,11:00,,,,,,,,,,36,R,ugm-3
14-01-1981,12:00,,,,,,,,,,36,R,ugm-3
14-01-1981,13:00,,,,,,,,,,36,R,ugm-3
14-01-1981,14:00,,,,,,,,,,34,R,ugm-3
14-01-1981,15:00,,,,,,,,,,34,R,ugm-3
14-01-1981,16:00,,,,,,,,,,38,R,ugm-3
14-01-1981,17:00,,,,,,,,,,36,R,ugm-3
14-01-1981,18:00,,,,,,,,,,36,R,ugm-3
14-01-1981,19:00,,,,,,,,,,42,R,ugm-3
14-01-1981,20:00,,,,,,,,,,40,R,ugm-3
14-01-1981,21:00,,,,,,,,,,40,R,ugm-3
14-01-1981,22:00,,,,,,,,,,40,R,ugm-3
14-01-1981,23:00,,,,,,,,,,40,R,ugm-3
14-01-1981,24:00,,,,,,,,,,40,R,ugm-3
15-01-1981,01:00,,,,,,,,,,40,R,ugm-3
15-01-1981,02:00,,,,,,,,,,38,R,ugm-3
15-01-1981,03:00,,,,,,,,,,38,R,ugm-3
15-01-1981,04:00,,,,,,,,,,38,R,ugm-3
15-01-1981,05:00,,,,,,,,,,38,R,ugm-3
15-01-1981,06:00,,,,,,,,,,34,R,ugm-3
15-01-1981,07:00,,,,,,,,,,38,R,ugm-3
15-01-1981,08:00,,,,,,,,,,40,R,ugm-3
15-01-1981,09:00,,,,,,,,,,40,R,ugm-3
15-01-1981,10:00,,,,,,,,,,42,R,ugm-3
15-01-1981,11:00,,,,,,,,,,40,R,ugm-3
15-01-1981,12:00,,,,,,,,,,36,R,ugm-3
15-01-1981,13:00,,,,,,,,,,34,R,ugm-3
15-01-1981,14:00,,,,,,,,,,32,R,ugm-3
15-01-1981,15:00,,,,,,,,,,32,R,ugm-3
15-01-1981,16:00,,,,,,,,,,38,R,ugm-3
15-01-1981,17:00,,,,,,,,,,38,R,ugm-3
15-01-1981,18:00,,,,,,,,,,30,R,ugm-3
15-01-1981,19:00,,,,,,,,,,24,R,ugm-3
15-01-1981,20:00,,,,,,,,,,22,R,ugm-3
15-01-1981,21:00,,,,,,,,,,16,R,ugm-3
15-01-1981,22:00,,,,,,,,,,16,R,ugm-3
15-01-1981,23:00,,,,,,,,,,12,R,ugm-3
15-01-1981,24:00,,,,,,,,,,10,R,ugm-3
16-01-1981,01:00,,,,,,,,,,12,R,ugm-3
16-01-1981,02:00,,,,,,,,,,10,R,ugm-3
16-01-1981,03:00,,,,,,,,,,10,R,ugm-3
16-01-1981,04:00,,,,,,,,,,10,R,ugm-3
16-01-1981,05:00,,,,,,,,,,12,R,ugm-3
16-01-1981,06:00,,,,,,,,,,12,R,ugm-3
16-01-1981,07:00,,,,,,,,,,12,R,ugm-3
16-01-1981,08:00,,,,,,,,,,10,R,ugm-3
16-01-1981,09:00,,,,,,,,,,8,R,ugm-3
16-01-1981,10:00,,,,,,,,,,10,R,ugm-3
16-01-1981,11:00,,,,,,,,,,8,R,ugm-3
16-01-1981,12:00,,,,,,,,,,6,R,ugm-3
16-01-1981,13:00,,,,,,,,,,14,R,ugm-3
16-01-1981,14:00,,,,,,,,,,14,R,ugm-3
16-01-1981,15:00,,,,,,,,,,24,R,ugm-3
16-01-1981,16:00,,,,,,,,,,36,R,ugm-3
16-01-1981,17:00,,,,,,,,,,42,R,ugm-3
16-01-1981,18:00,,,,,,,,,,40,R,ugm-3
16-01-1981,19:00,,,,,,,,,,30,R,ugm-3
16-01-1981,20:00,,,,,,,,,,22,R,ugm-3
16-01-1981,21:00,,,,,,,,,,28,R,ugm-3
16-01-1981,22:00,,,,,,,,,,30,R,ugm-3
16-01-1981,23:00,,,,,,,,,,34,R,ugm-3
16-01-1981,24:00,,,,,,,,,,36,R,ugm-3
17-01-1981,01:00,,,,,,,,,,36,R,ugm-3
17-01-1981,02:00,,,,,,,,,,38,R,ugm-3
17-01-1981,03:00,,,,,,,,,,40,R,ugm-3
17-01-1981,04:00,,,,,,,,,,38,R,ugm-3
17-01-1981,05:00,,,,,,,,,,36,R,ugm-3
17-01-1981,06:00,,,,,,,,,,36,R,ugm-3
17-01-1981,07:00,,,,,,,,,,34,R,ugm-3
17-01-1981,08:00,,,,,,,,,,32,R,ugm-3
17-01-1981,09:00,,,,,,,,,,32,R,ugm-3
17-01-1981,10:00,,,,,,,,,,32,R,ugm-3
17-01-1981,11:00,,,,,,,,,,32,R,ugm-3
17-01-1981,12:00,,,,,,,,,,34,R,ugm-3
17-01-1981,13:00,,,,,,,,,,34,R,ugm-3
17-01-1981,14:00,,,,,,,,,,36,R,ugm-3
17-01-1981,15:00,,,,,,,,,,36,R,ugm-3
17-01-1981,16:00,,,,,,,,,,38,R,ugm-3
17-01-1981,17:00,,,,,,,,,,36,R,ugm-3
17-01-1981,18:00,,,,,,,,,,34,R,ugm-3
17-01-1981,19:00,,,,,,,,,,32,R,ugm-3
17-01-1981,20:00,,,,,,,,,,30,R,ugm-3
17-01-1981,21:00,,,,,,,,,,22,R,ugm-3
17-01-1981,22:00,,,,,,,,,,20,R,ugm-3
17-01-1981,23:00,,,,,,,,,,18,R,ugm-3
17-01-1981,24:00,,,,,,,,,,12,R,ugm-3
18-01-1981,01:00,,,,,,,,,,20,R,ugm-3
18-01-1981,02:00,,,,,,,,,,28,R,ugm-3
18-01-1981,03:00,,,,,,,,,,26,R,ugm-3
18-01-1981,04:00,,,,,,,,,,32,R,ugm-3
18-01-1981,05:00,,,,,,,,,,30,R,ugm-3
18-01-1981,06:00,,,,,,,,,,28,R,ugm-3
18-01-1981,07:00,,,,,,,,,,30,R,ugm-3
18-01-1981,08:00,,,,,,,,,,32,R,ugm-3
18-01-1981,09:00,,,,,,,,,,30,R,ugm-3
18-01-1981,10:00,,,,,,,,,,26,R,ugm-3
18-01-1981,11:00,,,,,,,,,,24,R,ugm-3
18-01-1981,12:00,,,,,,,,,,30,R,ugm-3
18-01-1981,13:00,,,,,,,,,,34,R,ugm-3
18-01-1981,14:00,,,,,,,,,,40,R,ugm-3
18-01-1981,15:00,,,,,,,,,,42,R,ugm-3
18-01-1981,16:00,,,,,,,,,,34,R,ugm-3
18-01-1981,17:00,,,,,,,,,,36,R,ugm-3
18-01-1981,18:00,,,,,,,,,,38,R,ugm-3
18-01-1981,19:00,,,,,,,,,,32,R,ugm-3
18-01-1981,20:00,,,,,,,,,,28,R,ugm-3
18-01-1981,21:00,,,,,,,,,,28,R,ugm-3
18-01-1981,22:00,,,,,,,,,,38,R,ugm-3
18-01-1981,23:00,,,,,,,,,,38,R,ugm-3
18-01-1981,24:00,,,,,,,,,,34,R,ugm-3
19-01-1981,01:00,,,,,,,,,,26,R,ugm-3
19-01-1981,02:00,,,,,,,,,,26,R,ugm-3
19-01-1981,03:00,,,,,,,,,,32,R,ugm-3
19-01-1981,04:00,,,,,,,,,,36,R,ugm-3
19-01-1981,05:00,,,,,,,,,,36,R,ugm-3
19-01-1981,06:00,,,,,,,,,,40,R,ugm-3
19-01-1981,07:00,,,,,,,,,,40,R,ugm-3
19-01-1981,08:00,,,,,,,,,,38,R,ugm-3
19-01-1981,09:00,,,,,,,,,,38,R,ugm-3
19-01-1981,10:00,,,,,,,,,,38,R,ugm-3
19-01-1981,11:00,,,,,,,,,,40,R,ugm-3
19-01-1981,12:00,,,,,,,,,,38,R,ugm-3
19-01-1981,13:00,,,,,,,,,,40,R,ugm-3
19-01-1981,14:00,,,,,,,,,,38,R,ugm-3
19-01-1981,15:00,,,,,,,,,,38,R,ugm-3
19-01-1981,16:00,,,,,,,,,,40,R,ugm-3
19-01-1981,17:00,,,,,,,,,,34,R,ugm-3
19-01-1981,18:00,,,,,,,,,,30,R,ugm-3
19-01-1981,19:00,,,,,,,,,,28,R,ugm-3
19-01-1981,20:00,,,,,,,,,,28,R,ugm-3
19-01-1981,21:00,,,,,,,,,,28,R,ugm-3
19-01-1981,22:00,,,,,,,,,,26,R,ugm-3
19-01-1981,23:00,,,,,,,,,,26,R,ugm-3
19-01-1981,24:00,,,,,,,,,,24,R,ugm-3
20-01-1981,01:00,,,,,,,,,,28,R,ugm-3
20-01-1981,02:00,,,,,,,,,,28,R,ugm-3
20-01-1981,03:00,,,,,,,,,,28,R,ugm-3
20-01-1981,04:00,,,,,,,,,,40,R,ugm-3
20-01-1981,05:00,,,,,,,,,,42,R,ugm-3
20-01-1981,06:00,,,,,,,,,,40,R,ugm-3
20-01-1981,07:00,,,,,,,,,,32,R,ugm-3
20-01-1981,08:00,,,,,,,,,,30,R,ugm-3
20-01-1981,09:00,,,,,,,,,,30,R,ugm-3
20-01-1981,10:00,,,,,,,,,,32,R,ugm-3
20-01-1981,11:00,,,,,,,,,,34,R,ugm-3
20-01-1981,12:00,,,,,,,,,,32,R,ugm-3
20-01-1981,13:00,,,,,,,,,,36,R,ugm-3
20-01-1981,14:00,,,,,,,,,,44,R,ugm-3
20-01-1981,15:00,,,,,,,,,,46,R,ugm-3
20-01-1981,16:00,,,,,,,,,,40,R,ugm-3
20-01-1981,17:00,,,,,,,,,,40,R,ugm-3
20-01-1981,18:00,,,,,,,,,,28,R,ugm-3
20-01-1981,19:00,,,,,,,,,,18,R,ugm-3
20-01-1981,20:00,,,,,,,,,,10,R,ugm-3
20-01-1981,21:00,,,,,,,,,,10,R,ugm-3
20-01-1981,22:00,,,,,,,,,,8,R,ugm-3
20-01-1981,23:00,,,,,,,,,,8,R,ugm-3
20-01-1981,24:00,,,,,,,,,,8,R,ugm-3
21-01-1981,01:00,,,,,,,,,,2,R,ugm-3
21-01-1981,02:00,,,,,,,,,,0,R,ugm-3
21-01-1981,03:00,,,,,,,,,,0,R,ugm-3
21-01-1981,04:00,,,,,,,,,,6,R,ugm-3
21-01-1981,05:00,,,,,,,,,,16,R,ugm-3
21-01-1981,06:00,,,,,,,,,,20,R,ugm-3
21-01-1981,07:00,,,,,,,,,,24,R,ugm-3
21-01-1981,08:00,,,,,,,,,,24,R,ugm-3
21-01-1981,09:00,,,,,,,,,,24,R,ugm-3
21-01-1981,10:00,,,,,,,,,,26,R,ugm-3
21-01-1981,11:00,,,,,,,,,,22,R,ugm-3
21-01-1981,12:00,,,,,,,,,,24,R,ugm-3
21-01-1981,13:00,,,,,,,,,,24,R,ugm-3
21-01-1981,14:00,,,,,,,,,,20,R,ugm-3
21-01-1981,15:00,,,,,,,,,,18,R,ugm-3
21-01-1981,16:00,,,,,,,,,,10,R,ugm-3
21-01-1981,17:00,,,,,,,,,,2,R,ugm-3
21-01-1981,18:00,,,,,,,,,,0,R,ugm-3
21-01-1981,19:00,,,,,,,,,,0,R,ugm-3
21-01-1981,20:00,,,,,,,,,,0,R,ugm-3
21-01-1981,21:00,,,,,,,,,,2,R,ugm-3
21-01-1981,22:00,,,,,,,,,,6,R,ugm-3
21-01-1981,23:00,,,,,,,,,,10,R,ugm-3
21-01-1981,24:00,,,,,,,,,,10,R,ugm-3
22-01-1981,01:00,,,,,,,,,,10,R,ugm-3
22-01-1981,02:00,,,,,,,,,,10,R,ugm-3
22-01-1981,03:00,,,,,,,,,,12,R,ugm-3
22-01-1981,04:00,,,,,,,,,,12,R,ugm-3
22-01-1981,05:00,,,,,,,,,,14,R,ugm-3
22-01-1981,06:00,,,,,,,,,,14,R,ugm-3
22-01-1981,07:00,,,,,,,,,,12,R,ugm-3
22-01-1981,08:00,,,,,,,,,,10,R,ugm-3
22-01-1981,09:00,,,,,,,,,,10,R,ugm-3
22-01-1981,10:00,,,,,,,,,,10,R,ugm-3
22-01-1981,11:00,,,,,,,,,,10,R,ugm-3
22-01-1981,12:00,,,,,,,,,,8,R,ugm-3
22-01-1981,13:00,,,,,,,,,,8,R,ugm-3
22-01-1981,14:00,,,,,,,,,,6,R,ugm-3
22-01-1981,15:00,,,,,,,,,,8,R,ugm-3
22-01-1981,16:00,,,,,,,,,,6,R,ugm-3
22-01-1981,17:00,,,,,,,,,,4,R,ugm-3
22-01-1981,18:00,,,,,,,,,,4,R,ugm-3
22-01-1981,19:00,,,,,,,,,,0,R,ugm-3
22-01-1981,20:00,,,,,,,,,,0,R,ugm-3
22-01-1981,21:00,,,,,,,,,,0,R,ugm-3
22-01-1981,22:00,,,,,,,,,,0,R,ugm-3
22-01-1981,23:00,,,,,,,,,,0,R,ugm-3
22-01-1981,24:00,,,,,,,,,,0,R,ugm-3
23-01-1981,01:00,,,,,,,,,,0,R,ugm-3
23-01-1981,02:00,,,,,,,,,,0,R,ugm-3
23-01-1981,03:00,,,,,,,,,,0,R,ugm-3
23-01-1981,04:00,,,,,,,,,,0,R,ugm-3
23-01-1981,05:00,,,,,,,,,,0,R,ugm-3
23-01-1981,06:00,,,,,,,,,,0,R,ugm-3
23-01-1981,07:00,,,,,,,,,,0,R,ugm-3
23-01-1981,08:00,,,,,,,,,,0,R,ugm-3
23-01-1981,09:00,,,,,,,,,,0,R,ugm-3
23-01-1981,10:00,,,,,,,,,,0,R,ugm-3
23-01-1981,11:00,,,,,,,,,,0,R,ugm-3
23-01-1981,12:00,,,,,,,,,,2,R,ugm-3
23-01-1981,13:00,,,,,,,,,,2,R,ugm-3
23-01-1981,14:00,,,,,,,,,,0,R,ugm-3
23-01-1981,15:00,,,,,,,,,,0,R,ugm-3
23-01-1981,16:00,,,,,,,,,,0,R,ugm-3
23-01-1981,17:00,,,,,,,,,,0,R,ugm-3
23-01-1981,18:00,,,,,,,,,,0,R,ugm-3
23-01-1981,19:00,,,,,,,,,,0,R,ugm-3
23-01-1981,20:00,,,,,,,,,,0,R,ugm-3
23-01-1981,21:00,,,,,,,,,,0,R,ugm-3
23-01-1981,22:00,,,,,,,,,,0,R,ugm-3
23-01-1981,23:00,,,,,,,,,,0,R,ugm-3
23-01-1981,24:00,,,,,,,,,,0,R,ugm-3
24-01-1981,01:00,,,,,,,,,,0,R,ugm-3
24-01-1981,02:00,,,,,,,,,,0,R,ugm-3
24-01-1981,03:00,,,,,,,,,,0,R,ugm-3
24-01-1981,04:00,,,,,,,,,,0,R,ugm-3
24-01-1981,05:00,,,,,,,,,,0,R,ugm-3
24-01-1981,06:00,,,,,,,,,,0,R,ugm-3
24-01-1981,07:00,,,,,,,,,,0,R,ugm-3
24-01-1981,08:00,,,,,,,,,,4,R,ugm-3
24-01-1981,09:00,,,,,,,,,,8,R,ugm-3
24-01-1981,10:00,,,,,,,,,,14,R,ugm-3
24-01-1981,11:00,,,,,,,,,,20,R,ugm-3
24-01-1981,12:00,,,,,,,,,,24,R,ugm-3
24-01-1981,13:00,,,,,,,,,,30,R,ugm-3
24-01-1981,14:00,,,,,,,,,,32,R,ugm-3
24-01-1981,15:00,,,,,,,,,,30,R,ugm-3
24-01-1981,16:00,,,,,,,,,,30,R,ugm-3
24-01-1981,17:00,,,,,,,,,,28,R,ugm-3
24-01-1981,18:00,,,,,,,,,,24,R,ugm-3
24-01-1981,19:00,,,,,,,,,,22,R,ugm-3
24-01-1981,20:00,,,,,,,,,,20,R,ugm-3
24-01-1981,21:00,,,,,,,,,,14,R,ugm-3
24-01-1981,22:00,,,,,,,,,,14,R,ugm-3
24-01-1981,23:00,,,,,,,,,,14,R,ugm-3
24-01-1981,24:00,,,,,,,,,,16,R,ugm-3
25-01-1981,01:00,,,,,,,,,,14,R,ugm-3
25-01-1981,02:00,,,,,,,,,,14,R,ugm-3
25-01-1981,03:00,,,,,,,,,,16,R,ugm-3
25-01-1981,04:00,,,,,,,,,,16,R,ugm-3
25-01-1981,05:00,,,,,,,,,,14,R,ugm-3
25-01-1981,06:00,,,,,,,,,,12,R,ugm-3
25-01-1981,07:00,,,,,,,,,,20,R,ugm-3
25-01-1981,08:00,,,,,,,,,,26,R,ugm-3
25-01-1981,09:00,,,,,,,,,,30,R,ugm-3
25-01-1981,10:00,,,,,,,,,,30,R,ugm-3
25-01-1981,11:00,,,,,,,,,,32,R,ugm-3
25-01-1981,12:00,,,,,,,,,,34,R,ugm-3
25-01-1981,13:00,,,,,,,,,,34,R,ugm-3
25-01-1981,14:00,,,,,,,,,,32,R,ugm-3
25-01-1981,15:00,,,,,,,,,,32,R,ugm-3
25-01-1981,16:00,,,,,,,,,,28,R,ugm-3
25-01-1981,17:00,,,,,,,,,,24,R,ugm-3
25-01-1981,18:00,,,,,,,,,,24,R,ugm-3
25-01-1981,19:00,,,,,,,,,,24,R,ugm-3
25-01-1981,20:00,,,,,,,,,,20,R,ugm-3
25-01-1981,21:00,,,,,,,,,,16,R,ugm-3
25-01-1981,22:00,,,,,,,,,,16,R,ugm-3
25-01-1981,23:00,,,,,,,,,,16,R,ugm-3
25-01-1981,24:00,,,,,,,,,,14,R,ugm-3
26-01-1981,01:00,,,,,,,,,,14,R,ugm-3
26-01-1981,02:00,,,,,,,,,,10,R,ugm-3
26-01-1981,03:00,,,,,,,,,,8,R,ugm-3
26-01-1981,04:00,,,,,,,,,,10,R,ugm-3
26-01-1981,05:00,,,,,,,,,,12,R,ugm-3
26-01-1981,06:00,,,,,,,,,,14,R,ugm-3
26-01-1981,07:00,,,,,,,,,,14,R,ugm-3
26-01-1981,08:00,,,,,,,,,,12,R,ugm-3
26-01-1981,09:00,,,,,,,,,,10,R,ugm-3
26-01-1981,10:00,,,,,,,,,,10,R,ugm-3
26-01-1981,11:00,,,,,,,,,,10,R,ugm-3
26-01-1981,12:00,,,,,,,,,,8,R,ugm-3
26-01-1981,13:00,,,,,,,,,,10,R,ugm-3
26-01-1981,14:00,,,,,,,,,,14,R,ugm-3
26-01-1981,15:00,,,,,,,,,,16,R,ugm-3
26-01-1981,16:00,,,,,,,,,,4,R,ugm-3
26-01-1981,17:00,,,,,,,,,,0,R,ugm-3
26-01-1981,18:00,,,,,,,,,,0,R,ugm-3
26-01-1981,19:00,,,,,,,,,,4,R,ugm-3
26-01-1981,20:00,,,,,,,,,,8,R,ugm-3
26-01-1981,21:00,,,,,,,,,,10,R,ugm-3
26-01-1981,22:00,,,,,,,,,,6,R,ugm-3
26-01-1981,23:00,,,,,,,,,,4,R,ugm-3
26-01-1981,24:00,,,,,,,,,,0,R,ugm-3
27-01-1981,01:00,,,,,,,,,,0,R,ugm-3
27-01-1981,02:00,,,,,,,,,,0,R,ugm-3
27-01-1981,03:00,,,,,,,,,,0,R,ugm-3
27-01-1981,04:00,,,,,,,,,,0,R,ugm-3
27-01-1981,05:00,,,,,,,,,,0,R,ugm-3
27-01-1981,06:00,,,,,,,,,,0,R,ugm-3
27-01-1981,07:00,,,,,,,,,,0,R,ugm-3
27-01-1981,08:00,,,,,,,,,,0,R,ugm-3
27-01-1981,09:00,,,,,,,,,,2,R,ugm-3
27-01-1981,10:00,,,,,,,,,,4,R,ugm-3
27-01-1981,11:00,,,,,,,,,,6,R,ugm-3
27-01-1981,12:00,,,,,,,,,,6,R,ugm-3
27-01-1981,13:00,,,,,,,,,,8,R,ugm-3
27-01-1981,14:00,,,,,,,,,,6,R,ugm-3
27-01-1981,15:00,,,,,,,,,,4,R,ugm-3
27-01-1981,16:00,,,,,,,,,,10,R,ugm-3
27-01-1981,17:00,,,,,,,,,,10,R,ugm-3
27-01-1981,18:00,,,,,,,,,,8,R,ugm-3
27-01-1981,19:00,,,,,,,,,,8,R,ugm-3
27-01-1981,20:00,,,,,,,,,,6,R,ugm-3